Weather History for Pampa / Mesa Vista, TX

Change the Weather History Date:

Saturday, December 14, 2013

  Actual Average (KBGD) Record (KBGD)
Temperature  
Mean Temperature 39 °F 38 °F  
Max Temperature 50 °F 50 °F 72 °F (1962)
Min Temperature 28 °F 27 °F 8 °F (1963)
Degree Days  
Heating Degree Days 26 27  
Month to date heating degree days 351  
Since 1 July heating degree days 1068  
Cooling Degree Days 0 0  
Month to date cooling degree days 0  
Year to date cooling degree days 1839  
Moisture  
Dew Point 22 °F    
Average Humidity 57    
Maximum Humidity 75    
Minimum Humidity 28    
Precipitation  
Precipitation 0.00 in 0.02 in 0.78 in (1987)
Month to date precipitation 0.25  
Year to date precipitation 21.20  
Snow  
Snow 0.00 in - - ()
Month to date snowfall  
Since 1 July snowfall  
Snow Depth -    
Sea Level Pressure  
Sea Level Pressure 30.21 in    
Wind  
Wind Speed 12 mph (NNW)    
Max Wind Speed 21 mph    
Max Gust Speed 26 mph    
Visibility 10 miles    
Events      
T = Trace of Precipitation, MM = Missing Value Source: NWS Daily Summary

Daily Weather History Graph

Daily Weather History Graph

Search for Another Location

Airport:

Trip Planner

Search our weather history database for the weather conditions in past years. The results will help you decide how hot, cold, wet, or windy it might be!

Date:

Astronomy

Dec. 14, 2013 Rise Set
Actual Time 7:46 AM CST 5:31 PM CST
Civil Twilight 7:18 AM CST 5:59 PM CST
Nautical Twilight 6:46 AM CST 6:31 PM CST
Astronomical Twilight 6:14 AM CST 7:03 PM CST
Moon 3:51 PM CST (12/14) 5:12 AM CST (12/14)
Length of Visible Light 10h 41m
Length of Day
9h 44m
Waxing Gibbous, 94% of the Moon is Illuminated
Dec 14
Waxing Gibbous
Dec 17
Full
Dec 25
Last Quarter
Jan 1
New
Jan 7
First Quarter

Hourly Weather History & Observations

Time (CST) Temp. Windchill Dew Point Humidity Pressure Visibility Wind Dir Wind Speed Gust Speed Precip Events Conditions
12:15 AM 32.0 °F 23.0 °F 21.2 °F 64% 29.98 in 10.0 mi North 11.5 mph - N/A   Clear
12:35 AM 32.0 °F 22.5 °F 21.2 °F 64% 29.99 in 10.0 mi North 12.7 mph - N/A   Clear
12:55 AM 32.0 °F 23.0 °F 21.2 °F 64% 30.01 in 10.0 mi NNW 11.5 mph - N/A   Clear
1:15 AM 32.0 °F 22.1 °F 21.2 °F 64% 30.01 in 10.0 mi NNW 13.8 mph 19.6 mph N/A   Clear
1:35 AM 32.0 °F 21.6 °F 21.2 °F 64% 30.02 in 10.0 mi North 15.0 mph 20.7 mph N/A   Clear
1:55 AM 32.0 °F 20.5 °F 23.0 °F 69% 30.03 in 10.0 mi North 18.4 mph - N/A   Clear
2:15 AM 32.0 °F 22.1 °F 23.0 °F 69% 30.05 in 10.0 mi North 13.8 mph 25.3 mph N/A   Clear
2:35 AM 32.0 °F 22.1 °F 21.2 °F 64% 30.05 in 10.0 mi North 13.8 mph 19.6 mph N/A   Clear
2:55 AM 32.0 °F 22.5 °F 21.2 °F 64% 30.07 in 10.0 mi North 12.7 mph 20.7 mph N/A   Clear
3:15 AM 30.2 °F 19.8 °F 21.2 °F 69% 30.08 in 10.0 mi North 13.8 mph - N/A   Clear
3:35 AM 30.2 °F 20.2 °F 23.0 °F 75% 30.09 in 10.0 mi North 12.7 mph 20.7 mph N/A   Clear
3:55 AM 30.2 °F 21.3 °F 21.2 °F 69% 30.10 in 10.0 mi North 10.4 mph - N/A   Clear
4:15 AM 30.2 °F 20.8 °F 21.2 °F 69% 30.11 in 10.0 mi North 11.5 mph - N/A   Clear
4:35 AM 28.4 °F 18.0 °F 21.2 °F 74% 30.12 in 10.0 mi North 12.7 mph 18.4 mph N/A   Clear
4:55 AM 28.4 °F 18.0 °F 21.2 °F 74% 30.12 in 10.0 mi North 12.7 mph 18.4 mph N/A   Clear
5:15 AM 28.4 °F 18.5 °F 21.2 °F 74% 30.13 in 10.0 mi North 11.5 mph 16.1 mph N/A   Clear
5:35 AM 28.4 °F 20.4 °F 21.2 °F 74% 30.13 in 10.0 mi NNW 8.1 mph - N/A   Clear
5:55 AM 28.4 °F 19.7 °F 21.2 °F 74% 30.14 in 10.0 mi NNW 9.2 mph - N/A   Clear
6:15 AM 28.4 °F 21.2 °F 21.2 °F 74% 30.15 in 10.0 mi North 6.9 mph - N/A   Clear
6:35 AM 28.4 °F 20.4 °F 21.2 °F 74% 30.17 in 10.0 mi North 8.1 mph - N/A   Clear
6:55 AM 28.4 °F 22.2 °F 21.2 °F 74% 30.17 in 10.0 mi North 5.8 mph - N/A   Clear
7:15 AM 28.4 °F 24.6 °F 21.2 °F 74% 30.19 in 10.0 mi North 3.5 mph - N/A   Clear
7:35 AM 30.2 °F 21.3 °F 23.0 °F 75% 30.19 in 10.0 mi NNW 10.4 mph 16.1 mph N/A   Clear
7:55 AM 30.2 °F 23.4 °F 21.2 °F 69% 30.21 in 10.0 mi NNW 6.9 mph - N/A   Clear
8:15 AM 30.2 °F 20.8 °F 23.0 °F 75% 30.22 in 10.0 mi NNW 11.5 mph - N/A   Clear
8:35 AM 32.0 °F 22.5 °F 23.0 °F 69% 30.23 in 10.0 mi NNW 12.7 mph 17.3 mph N/A   Clear
8:55 AM 32.0 °F 22.5 °F 23.0 °F 69% 30.24 in 10.0 mi North 12.7 mph 17.3 mph N/A   Clear
9:15 AM 32.0 °F 22.5 °F 23.0 °F 69% 30.25 in 10.0 mi North 12.7 mph - N/A   Clear
9:35 AM 33.8 °F 24.3 °F 23.0 °F 65% 30.26 in 10.0 mi North 13.8 mph 19.6 mph N/A   Clear
9:55 AM 35.6 °F 25.5 °F 24.8 °F 65% 30.27 in 10.0 mi NNW 17.3 mph 20.7 mph N/A   Clear
10:15 AM 35.6 °F 24.8 °F 23.0 °F 60% 30.28 in 10.0 mi North 19.6 mph 24.2 mph N/A   Clear
10:35 AM 37.4 °F 28.5 °F 24.8 °F 60% 30.30 in 10.0 mi North 15.0 mph 21.9 mph N/A   Clear
10:55 AM 39.2 °F 30.2 °F 26.6 °F 61% 30.29 in 10.0 mi North 17.3 mph 21.9 mph N/A   Clear
11:15 AM 41.0 °F 32.2 °F 26.6 °F 57% 30.29 in 10.0 mi North 18.4 mph 23.0 mph N/A   Clear
11:35 AM 42.8 °F 35.4 °F 28.4 °F 57% 30.30 in 10.0 mi North 15.0 mph 23.0 mph N/A   Clear
11:55 AM 42.8 °F 34.5 °F 26.6 °F 53% 30.30 in 10.0 mi North 18.4 mph - N/A   Clear
12:15 PM 44.6 °F 37.4 °F 26.6 °F 49% 30.29 in 10.0 mi North 16.1 mph 25.3 mph N/A   Clear
12:35 PM 44.6 °F 37.2 °F 26.6 °F 49% 30.28 in 10.0 mi NNW 17.3 mph 23.0 mph N/A   Clear
12:55 PM 46.4 °F 39.0 °F 26.6 °F 46% 30.27 in 10.0 mi NNW 19.6 mph 24.2 mph N/A   Clear
1:15 PM 46.4 °F 39.5 °F 26.6 °F 46% 30.26 in 10.0 mi North 17.3 mph 25.3 mph N/A   Clear
1:35 PM 48.2 °F - 26.6 °F 43% 30.26 in 10.0 mi North 16.1 mph 21.9 mph N/A   Clear
1:55 PM 50.0 °F - 24.8 °F 37% 30.25 in 10.0 mi North 18.4 mph 23.0 mph N/A   Clear
2:15 PM 50.0 °F - 23.0 °F 35% 30.24 in 10.0 mi NNW 15.0 mph 26.5 mph N/A   Clear
2:35 PM 50.0 °F - 23.0 °F 35% 30.24 in 10.0 mi NNW 17.3 mph 26.5 mph N/A   Clear
2:55 PM 50.0 °F - 23.0 °F 35% 30.23 in 10.0 mi NNW 19.6 mph 24.2 mph N/A   Clear
3:15 PM 50.0 °F - 21.2 °F 32% 30.23 in 10.0 mi North 20.7 mph 24.2 mph N/A   Clear
3:35 PM 50.0 °F - 21.2 °F 32% 30.23 in 10.0 mi NNW 16.1 mph 25.3 mph N/A   Clear
3:55 PM 50.0 °F - 19.4 °F 30% 30.23 in 10.0 mi North 19.6 mph - N/A   Clear
4:15 PM 50.0 °F - 19.4 °F 30% 30.23 in 10.0 mi North 13.8 mph 21.9 mph N/A   Clear
4:35 PM 50.0 °F - 17.6 °F 28% 30.24 in 10.0 mi North 12.7 mph 19.6 mph N/A   Clear
4:55 PM 48.2 °F - 17.6 °F 30% 30.24 in 10.0 mi NNW 11.5 mph 19.6 mph N/A   Clear
5:15 PM 46.4 °F 41.5 °F 19.4 °F 34% 30.24 in 10.0 mi North 10.4 mph - N/A   Clear
5:35 PM 44.6 °F 40.7 °F 19.4 °F 37% 30.25 in 10.0 mi NNW 6.9 mph - N/A   Clear
5:55 PM 42.8 °F 40.1 °F 17.6 °F 36% 30.25 in 10.0 mi NW 4.6 mph - N/A   Clear
6:15 PM 42.8 °F 39.3 °F 17.6 °F 36% 30.25 in 10.0 mi NW 5.8 mph - N/A   Clear
6:35 PM 37.4 °F 33.8 °F 17.6 °F 45% 30.26 in 10.0 mi NW 4.6 mph - N/A   Clear
6:55 PM 33.8 °F 28.6 °F 17.6 °F 52% 30.26 in 10.0 mi West 5.8 mph - N/A   Clear
7:15 PM 33.8 °F 27.0 °F 19.4 °F 56% 30.26 in 10.0 mi West 8.1 mph - N/A   Clear
7:35 PM 33.8 °F 27.0 °F 19.4 °F 56% 30.26 in 10.0 mi WNW 8.1 mph - N/A   Clear
7:55 PM 32.0 °F 23.6 °F 17.6 °F 55% 30.26 in 10.0 mi SW 10.4 mph - N/A   Clear
8:15 PM 32.0 °F 24.8 °F 17.6 °F 55% 30.27 in 10.0 mi SW 8.1 mph - N/A   Clear
8:35 PM 30.2 °F 21.9 °F 19.4 °F 64% 30.27 in 10.0 mi WSW 9.2 mph - N/A   Clear
8:55 PM 32.0 °F 23.6 °F 19.4 °F 60% 30.28 in 10.0 mi WSW 10.4 mph - N/A   Clear
9:15 PM 32.0 °F 24.2 °F 19.4 °F 60% 30.28 in 10.0 mi WSW 9.2 mph - N/A   Clear
9:35 PM 32.0 °F 23.6 °F 19.4 °F 60% 30.27 in 10.0 mi WSW 10.4 mph - N/A   Clear
9:55 PM 32.0 °F 23.6 °F 19.4 °F 60% 30.27 in 10.0 mi WSW 10.4 mph - N/A   Clear
10:15 PM 32.0 °F 23.6 °F 19.4 °F 60% 30.26 in 10.0 mi SW 10.4 mph - N/A   Clear
10:35 PM 32.0 °F 23.6 °F 19.4 °F 60% 30.27 in 10.0 mi SW 10.4 mph - N/A   Clear
10:55 PM 32.0 °F 23.6 °F 19.4 °F 60% 30.28 in 10.0 mi WSW 10.4 mph - N/A   Clear
11:15 PM 30.2 °F 21.9 °F 17.6 °F 60% 30.28 in 10.0 mi WSW 9.2 mph - N/A   Clear
11:35 PM 30.2 °F 22.6 °F 19.4 °F 64% 30.27 in 10.0 mi WSW 8.1 mph - N/A   Clear
11:55 PM 30.2 °F 21.3 °F 17.6 °F 60% 30.27 in 10.0 mi WSW 10.4 mph - N/A   Clear